,,Stat5,,Stat1,,Stat2,,Stat3,,Stat4,,Wind1,,Wind1,
time,status,PA1M_AVG,status,PR1M_SUM,status,RH1M_AVG,status,SR1M_AVG,status,TA1M_AVG,status,W1dAve1m,status,W1sAve1m,
2002-02-01, 00:00:01,VALID,919.517,VALID,0,VALID,76.5951,VALID,-0.101885,VALID,21.5324,VALID,108,VALID,3.97776,
2002-02-01, 00:01:00,VALID,919.573,VALID,0,VALID,76.1361,VALID,-0.0679233,VALID,21.5714,VALID,84,VALID,3.61493,
2002-02-01, 00:02:00,VALID,919.567,VALID,0,VALID,76.2925,VALID,-0.0849042,VALID,21.6099,VALID,58,VALID,1.89844,
2002-02-01, 00:03:00,VALID,919.592,VALID,0,VALID,76.3192,VALID,-0.0849042,VALID,21.6067,VALID,80,VALID,2.48893,
2002-02-01, 00:04:00,VALID,919.555,VALID,0,VALID,76.66,VALID,-0.0679233,VALID,21.5808,VALID,115,VALID,1.96284,
2002-02-01, 00:05:00,VALID,919.534,VALID,0,VALID,76.4133,VALID,-0.0679233,VALID,21.5585,VALID,138,VALID,2.68561,
2002-02-01, 00:06:00,VALID,919.526,VALID,0,VALID,76.3103,VALID,-0.0339617,VALID,21.5738,VALID,117,VALID,2.91106,
2002-02-01, 00:07:00,VALID,919.514,VALID,0,VALID,76.4857,VALID,-0.0679233,VALID,21.5973,VALID,89,VALID,3.26964,
2002-02-01, 00:08:00,VALID,919.496,VALID,0,VALID,76.763,VALID,-0.0509425,VALID,21.5808,VALID,94,VALID,2.66719,
2002-02-01, 00:09:00,VALID,919.535,VALID,0,VALID,76.6485,VALID,-0.0169808,VALID,21.5518,VALID,107,VALID,3.05181,
2002-02-01, 00:10:00,VALID,919.511,VALID,0,VALID,76.9779,VALID,-0.0509425,VALID,21.5518,VALID,92,VALID,3.67388,
2002-02-01, 00:11:00,VALID,919.522,VALID,0,VALID,76.8774,VALID,-0.101885,VALID,21.5256,VALID,72,VALID,3.13014,
2002-02-01, 00:12:00,VALID,919.51,VALID,0,VALID,76.7261,VALID,-0.0679233,VALID,21.5229,VALID,78,VALID,3.15488,
2002-02-01, 00:13:00,VALID,919.533,VALID,0,VALID,76.7108,VALID,-0.0679233,VALID,21.5585,VALID,101,VALID,2.3822,
2002-02-01, 00:14:00,VALID,919.542,VALID,0,VALID,77.1711,VALID,-0.0509425,VALID,21.5324,VALID,76,VALID,2.32772,
2002-02-01, 00:15:00,VALID,919.538,VALID,0,VALID,77.5272,VALID,-0.0679233,VALID,21.4736,VALID,89,VALID,1.73972,
2002-02-01, 00:16:00,VALID,919.542,VALID,0,VALID,77.5844,VALID,-0.0509425,VALID,21.4257,VALID,102,VALID,2.50586,
2002-02-01, 00:17:00,VALID,919.501,VALID,0,VALID,77.4979,VALID,-0.0509425,VALID,21.4157,VALID,107,VALID,2.23684,
2002-02-01, 00:18:00,VALID,919.474,VALID,0,VALID,77.3352,VALID,-0.0849042,VALID,21.4419,VALID,103,VALID,3.33162,
2002-02-01, 00:19:00,VALID,919.459,VALID,0,VALID,75.7113,VALID,-0.0509425,VALID,21.5386,VALID,73,VALID,2.15728,
2002-02-01, 00:20:00,VALID,919.433,VALID,0,VALID,76.0229,VALID,-0.0849042,VALID,21.642,VALID,102,VALID,1.93301,
2002-02-01, 00:21:00,VALID,919.43,VALID,0,VALID,76.3306,VALID,-0.0679233,VALID,21.6813,VALID,121,VALID,2.147,
2002-02-01, 00:22:00,VALID,919.434,VALID,0,VALID,76.8647,VALID,-0.0509425,VALID,21.6649,VALID,90,VALID,1.85016,
2002-02-01, 00:23:00,VALID,919.451,VALID,0,VALID,77.3021,VALID,-0.0339617,VALID,21.607,VALID,102,VALID,1.29194,
2002-02-01, 00:24:00,VALID,919.47,VALID,0,VALID,77.3161,VALID,-0.101885,VALID,21.5418,VALID,60,VALID,2.57109,
2002-02-01, 00:25:00,VALID,919.464,VALID,0,VALID,77.5107,VALID,-0.0509425,VALID,21.5192,VALID,79,VALID,2.01295,
2002-02-01, 00:26:00,VALID,919.498,VALID,0,VALID,77.6734,VALID,-0.0849042,VALID,21.5068,VALID,78,VALID,2.37644,
2002-02-01, 00:27:00,VALID,919.469,VALID,0,VALID,77.4878,VALID,-0.0509425,VALID,21.5038,VALID,107,VALID,2.6949,
2002-02-01, 00:28:00,VALID,919.471,VALID,0,VALID,76.9041,VALID,-0.0849042,VALID,21.5453,VALID,103,VALID,2.9377,
2002-02-01, 00:29:00,VALID,919.473,VALID,0,VALID,77.1508,VALID,-0.0679233,VALID,21.594,VALID,90,VALID,2.60465,
2002-02-01, 00:30:00,VALID,919.471,VALID,0,VALID,77.1711,VALID,-0.0509425,VALID,21.5811,VALID,122,VALID,3.21514,
2002-02-01, 00:31:00,VALID,919.45,VALID,0,VALID,77.8298,VALID,-0.0849042,VALID,21.5447,VALID,87,VALID,2.9264,
2002-02-01, 00:32:00,VALID,919.414,VALID,0,VALID,78.3232,VALID,-0.0679233,VALID,21.4836,VALID,96,VALID,1.89766,
2002-02-01, 00:33:00,VALID,919.445,VALID,0,VALID,78.6513,VALID,-0.0679233,VALID,21.4292,VALID,101,VALID,1.46484,
2002-02-01, 00:34:00,VALID,919.484,VALID,0,VALID,78.2444,VALID,-0.0679233,VALID,21.364,VALID,122,VALID,2.67989,
2002-02-01, 00:35:00,VALID,919.505,VALID,0,VALID,77.6963,VALID,-0.0339617,VALID,21.3737,VALID,87,VALID,1.6766,
2002-02-01, 00:36:00,VALID,919.487,VALID,0,VALID,77.4941,VALID,-0.0849042,VALID,21.4128,VALID,127,VALID,1.38398,
2002-02-01, 00:37:00,VALID,919.476,VALID,0,VALID,77.606,VALID,-0.0679233,VALID,21.426,VALID,136,VALID,0.901933,
2002-02-01, 00:38:00,VALID,919.426,VALID,0,VALID,77.4738,VALID,-0.0169808,VALID,21.4219,VALID,111,VALID,1.93249,
2002-02-01, 00:39:00,VALID,919.43,VALID,0,VALID,77.6811,VALID,0.0339617,VALID,21.4209,VALID,138,VALID,1.99815,
2002-02-01, 00:40:00,VALID,919.439,VALID,0,VALID,77.9583,VALID,0.0169808,VALID,21.398,VALID,115,VALID,2.14727,
2002-02-01, 00:41:00,VALID,919.434,VALID,0,VALID,77.5984,VALID,0.0509425,VALID,21.3821,VALID,116,VALID,2.5257,
2002-02-01, 00:42:00,VALID,919.428,VALID,0,VALID,77.0669,VALID,0.0509425,VALID,21.4211,VALID,74,VALID,3.08717,
2002-02-01, 00:43:00,VALID,919.412,VALID,0,VALID,77.1978,VALID,0.0169808,VALID,21.4758,VALID,82,VALID,1.78577,
2002-02-01, 00:44:00,VALID,919.417,VALID,0,VALID,77.381,VALID,0.0339617,VALID,21.4502,VALID,139,VALID,2.5377,
2002-02-01, 00:45:00,VALID,919.398,VALID,0,VALID,77.3797,VALID,0.0679233,VALID,21.447,VALID,84,VALID,1.95991,
2002-02-01, 00:46:00,VALID,919.394,VALID,0,VALID,77.3059,VALID,0.0679233,VALID,21.4631,VALID,93,VALID,2.64383,
2002-02-01, 00:47:00,VALID,919.38,VALID,0,VALID,77.6289,VALID,0.0849042,VALID,21.4464,VALID,115,VALID,2.03618,
2002-02-01, 00:48:00,VALID,919.397,VALID,0,VALID,77.5704,VALID,0.0339617,VALID,21.4276,VALID,122,VALID,2.13965,
2002-02-01, 00:49:00,VALID,919.365,VALID,0,VALID,77.8476,VALID,0.0679233,VALID,21.4179,VALID,114,VALID,1.64474,
2002-02-01, 00:50:00,VALID,919.37,VALID,0,VALID,77.5488,VALID,0.0169808,VALID,21.4144,VALID,87,VALID,3.11102,
2002-02-01, 00:51:00,VALID,919.345,VALID,0,VALID,77.6683,VALID,0.0339617,VALID,21.434,VALID,90,VALID,2.59683,
2002-02-01, 00:52:00,VALID,919.366,VALID,0,VALID,77.8871,VALID,0.0339617,VALID,21.4308,VALID,81,VALID,1.67813,
2002-02-01, 00:53:00,VALID,919.372,VALID,0,VALID,77.9354,VALID,-0.0509425,VALID,21.3931,VALID,140,VALID,2.0882,
2002-02-01, 00:54:00,VALID,919.363,VALID,0,VALID,77.5679,VALID,-0.101885,VALID,21.3708,VALID,149,VALID,1.50321,
2002-02-01, 00:55:00,VALID,919.36,VALID,0,VALID,77.8871,VALID,-0.0509425,VALID,21.3834,VALID,125,VALID,0.763775,
2002-02-01, 00:56:00,VALID,919.367,VALID,0,VALID,78.2278,VALID,-0.101885,VALID,21.3737,VALID,127,VALID,2.03594,
2002-02-01, 00:57:00,VALID,919.366,VALID,0,VALID,78.6386,VALID,-0.0679233,VALID,21.3382,VALID,111,VALID,1.82196,
2002-02-01, 00:58:00,VALID,919.378,VALID,0,VALID,78.2914,VALID,-0.0849042,VALID,21.2964,VALID,123,VALID,1.78886,
2002-02-01, 00:59:00,VALID,919.356,VALID,0,VALID,77.9659,VALID,-0.0169808,VALID,21.3064,VALID,122,VALID,2.52118,
2002-02-01, 01:00:00,VALID,919.36,VALID,0,VALID,77.6162,VALID,-0.0679233,VALID,21.3675,VALID,94,VALID,2.08633,
2002-02-01, 01:01:00,VALID,919.34,VALID,0,VALID,78.224,VALID,-0.0679233,VALID,21.3837,VALID,130,VALID,1.2315,
2002-02-01, 01:02:00,VALID,919.343,VALID,0,VALID,78.6106,VALID,-0.0679233,VALID,21.3489,VALID,125,VALID,1.04627,
2002-02-01, 01:03:00,VALID,919.328,VALID,0,VALID,79.0366,VALID,-0.0509425,VALID,21.2964,VALID,108,VALID,1.58717,
2002-02-01, 01:04:00,VALID,919.332,VALID,0,VALID,79.4142,VALID,-0.101885,VALID,21.2189,VALID,109,VALID,1.33633,
2002-02-01, 01:05:00,VALID,919.325,VALID,0,VALID,79.2159,VALID,-0.101885,VALID,21.1836,VALID,104,VALID,1.61924,
2002-02-01, 01:06:00,VALID,919.313,VALID,0,VALID,79.6075,VALID,-0.0339617,VALID,21.1801,VALID,79,VALID,2.37151,
2002-02-01, 01:07:00,VALID,919.325,VALID,0,VALID,79.123,VALID,-0.0849042,VALID,21.1607,VALID,45,VALID,2.35033,
2002-02-01, 01:08:00,VALID,919.269,VALID,0,VALID,78.9094,VALID,-0.0339617,VALID,21.2084,VALID,68,VALID,2.49473,
2002-02-01, 01:09:00,VALID,919.267,VALID,0,VALID,78.8624,VALID,0,VALID,21.2439,VALID,109,VALID,1.86842,
2002-02-01, 01:10:00,VALID,919.265,VALID,0,VALID,79.1281,VALID,0.0169808,VALID,21.2533,VALID,107,VALID,1.80148,
2002-02-01, 01:11:00,VALID,919.255,VALID,0,VALID,79.0976,VALID,0.0169808,VALID,21.2242,VALID,118,VALID,2.68914,
2002-02-01, 01:12:00,VALID,919.25,VALID,0,VALID,79.0836,VALID,0.0169808,VALID,21.2173,VALID,71,VALID,2.82832,
2002-02-01, 01:13:00,VALID,919.218,VALID,0,VALID,79.1637,VALID,0.0509425,VALID,21.2242,VALID,53,VALID,2.82833,
2002-02-01, 01:14:00,VALID,919.218,VALID,0,VALID,79.4053,VALID,0,VALID,21.1979,VALID,107,VALID,1.56435,
2002-02-01, 01:15:00,VALID,919.216,VALID,0,VALID,79.7601,VALID,0,VALID,21.1731,VALID,63,VALID,1.87253,
2002-02-01, 01:16:00,VALID,919.209,VALID,0,VALID,79.6241,VALID,0,VALID,21.1435,VALID,126,VALID,1.49121,
2002-02-01, 01:17:00,VALID,919.175,VALID,0,VALID,79.6063,VALID,0,VALID,21.1378,VALID,132,VALID,2.58861,
2002-02-01, 01:18:00,VALID,919.144,VALID,0,VALID,79.6139,VALID,0,VALID,21.1542,VALID,139,VALID,1.79688,
2002-02-01, 01:19:00,VALID,919.145,VALID,0,VALID,79.4982,VALID,0.0169808,VALID,21.1303,VALID,96,VALID,2.20477,
2002-02-01, 01:20:00,VALID,919.141,VALID,0,VALID,79.1803,VALID,-0.0169808,VALID,21.1497,VALID,104,VALID,2.09551,
2002-02-01, 01:21:00,VALID,919.135,VALID,0,VALID,79.0963,VALID,0,VALID,21.189,VALID,104,VALID,1.92146,
2002-02-01, 01:22:01,VALID,919.132,VALID,0,VALID,79.2108,VALID,0.0169808,VALID,21.1914,VALID,107,VALID,1.2389,
2002-02-01, 01:23:00,VALID,919.134,VALID,0,VALID,79.4308,VALID,0.0509425,VALID,21.1787,VALID,101,VALID,2.47862,
2002-02-01, 01:24:00,VALID,919.122,VALID,0,VALID,79.5757,VALID,0.0339617,VALID,21.1556,VALID,90,VALID,2.34121,
2002-02-01, 01:25:00,VALID,919.166,VALID,0,VALID,79.3977,VALID,0.0509425,VALID,21.14,VALID,139,VALID,2.08285,
2002-02-01, 01:26:01,VALID,919.136,VALID,0,VALID,79.6177,VALID,0.0169808,VALID,21.1499,VALID,119,VALID,2.36779,
2002-02-01, 01:27:00,VALID,919.122,VALID,0,VALID,79.5579,VALID,0.0509425,VALID,21.1429,VALID,129,VALID,2.3382,
2002-02-01, 01:28:00,VALID,919.129,VALID,0,VALID,79.5694,VALID,0.0509425,VALID,21.1459,VALID,138,VALID,1.30625,
2002-02-01, 01:29:00,VALID,919.125,VALID,0,VALID,78.7873,VALID,0,VALID,21.1725,VALID,74,VALID,2.43483,
2002-02-01, 01:30:01,VALID,919.103,VALID,0,VALID,78.7187,VALID,0.0509425,VALID,21.2496,VALID,69,VALID,1.5847,
2002-02-01, 01:31:00,VALID,919.086,VALID,0,VALID,78.987,VALID,0.0169808,VALID,21.2528,VALID,125,VALID,1.9558,
2002-02-01, 01:32:00,VALID,919.091,VALID,0,VALID,78.5585,VALID,0.0509425,VALID,21.2364,VALID,96,VALID,2.21406,
2002-02-01, 01:33:00,VALID,919.035,VALID,0,VALID,78.6678,VALID,0.0169808,VALID,21.2369,VALID,105,VALID,1.56127,
2002-02-01, 01:34:01,VALID,919.031,VALID,0,VALID,78.8484,VALID,0,VALID,21.224,VALID,106,VALID,1.69551,
2002-02-01, 01:35:00,VALID,919.013,VALID,0,VALID,78.898,VALID,0.0169808,VALID,21.2011,VALID,98,VALID,1.55469,
2002-02-01, 01:36:00,VALID,918.99,VALID,0,VALID,79.1129,VALID,0.0169808,VALID,21.1917,VALID,139,VALID,1.53301,
2002-02-01, 01:37:00,VALID,918.97,VALID,0,VALID,79.0111,VALID,0,VALID,21.1561,VALID,115,VALID,1.82155,
2002-02-01, 01:38:01,VALID,918.969,VALID,0,VALID,79.4409,VALID,-0.0509425,VALID,21.1577,VALID,92,VALID,2.36945,
2002-02-01, 01:39:00,VALID,918.953,VALID,0,VALID,79.1256,VALID,-0.0849042,VALID,21.1184,VALID,92,VALID,2.18195,
2002-02-01, 01:40:00,VALID,918.946,VALID,0,VALID,79.31,VALID,-0.101885,VALID,21.1515,VALID,99,VALID,1.99023,
2002-02-01, 01:41:00,VALID,918.932,VALID,0,VALID,78.7034,VALID,-0.101885,VALID,21.1286,VALID,124,VALID,2.18318,
2002-02-01, 01:42:01,VALID,918.912,VALID,0,VALID,79.0162,VALID,-0.101885,VALID,21.1712,VALID,120,VALID,1.60757,
2002-02-01, 01:43:00,VALID,918.92,VALID,0,VALID,79.3608,VALID,-0.0849042,VALID,21.1451,VALID,114,VALID,2.02076,
2002-02-01, 01:44:01,VALID,918.899,VALID,0,VALID,79.5605,VALID,-0.0849042,VALID,21.1065,VALID,97,VALID,1.19395,
2002-02-01, 01:45:00,VALID,918.877,VALID,0,VALID,79.9559,VALID,-0.101885,VALID,21.0508,VALID,114,VALID,1.71772,
2002-02-01, 01:46:01,VALID,918.883,VALID,0,VALID,80.1009,VALID,-0.118866,VALID,21.0123,VALID,108,VALID,1.37109,
2002-02-01, 01:47:00,VALID,918.88,VALID,0,VALID,80.3044,VALID,-0.101885,VALID,20.9872,VALID,123,VALID,0.962582,
2002-02-01, 01:48:00,VALID,918.842,VALID,0,VALID,80.3845,VALID,-0.101885,VALID,20.9603,VALID,91,VALID,1.04277,
2002-02-01, 01:49:00,VALID,918.824,VALID,0,VALID,80.5371,VALID,-0.101885,VALID,20.9576,VALID,101,VALID,1.83532,
2002-02-01, 01:50:01,VALID,918.859,VALID,0,VALID,79.4791,VALID,-0.0849042,VALID,20.974,VALID,105,VALID,2.04808,
2002-02-01, 01:51:00,VALID,918.839,VALID,0,VALID,79.6991,VALID,-0.101885,VALID,21.0319,VALID,132,VALID,1.45868,
2002-02-01, 01:52:01,VALID,918.816,VALID,0,VALID,80.0221,VALID,-0.0849042,VALID,21.0484,VALID,106,VALID,2.34297,
2002-02-01, 01:53:00,VALID,918.811,VALID,0,VALID,80.56,VALID,-0.0509425,VALID,21.012,VALID,113,VALID,1.98664,
2002-02-01, 01:54:01,VALID,918.813,VALID,0,VALID,80.6769,VALID,0,VALID,20.9533,VALID,156,VALID,2.15152,
2002-02-01, 01:55:00,VALID,918.811,VALID,0,VALID,80.4519,VALID,0.0169808,VALID,20.9173,VALID,115,VALID,3.34396,
2002-02-01, 01:56:00,VALID,918.816,VALID,0,VALID,80.6998,VALID,0.0169808,VALID,20.9463,VALID,95,VALID,1.81465,
2002-02-01, 01:57:00,VALID,918.831,VALID,0,VALID,80.3285,VALID,0.0169808,VALID,20.924,VALID,101,VALID,2.35485,
2002-02-01, 01:58:01,VALID,918.82,VALID,0,VALID,80.1645,VALID,0,VALID,20.9404,VALID,113,VALID,1.72175,
2002-02-01, 01:59:00,VALID,918.78,VALID,0,VALID,79.8517,VALID,0,VALID,20.9593,VALID,75,VALID,1.98252,
2002-02-01, 02:00:01,VALID,918.765,VALID,0,VALID,79.5211,VALID,0.0169808,VALID,20.9953,VALID,115,VALID,1.90215,
2002-02-01, 02:01:00,VALID,918.735,VALID,0,VALID,79.2896,VALID,0.0169808,VALID,21.05,VALID,88,VALID,1.5553,
2002-02-01, 02:02:01,VALID,918.713,VALID,0,VALID,79.3774,VALID,0,VALID,21.0756,VALID,77,VALID,1.70703,
2002-02-01, 02:03:00,VALID,918.693,VALID,0,VALID,79.1943,VALID,0.0339617,VALID,21.0691,VALID,122,VALID,1.85588,
2002-02-01, 02:04:00,VALID,918.672,VALID,0,VALID,79.1879,VALID,0.0169808,VALID,21.0751,VALID,83,VALID,2.56895,
2002-02-01, 02:05:00,VALID,918.637,VALID,0,VALID,79.015,VALID,0,VALID,21.0562,VALID,93,VALID,1.9043,
2002-02-01, 02:06:01,VALID,918.637,VALID,0,VALID,78.5788,VALID,0.0169808,VALID,21.0532,VALID,108,VALID,2.05689,
2002-02-01, 02:07:00,VALID,918.601,VALID,0,VALID,78.2253,VALID,0.0169808,VALID,21.0818,VALID,123,VALID,2.09827,
2002-02-01, 02:08:01,VALID,918.596,VALID,0,VALID,78.0104,VALID,-0.0509425,VALID,21.1216,VALID,124,VALID,2.14766,
2002-02-01, 02:09:00,VALID,918.599,VALID,0,VALID,77.3873,VALID,-0.0679233,VALID,21.1612,VALID,110,VALID,2.62849,
2002-02-01, 02:10:01,VALID,918.596,VALID,0,VALID,77.2767,VALID,-0.0849042,VALID,21.2256,VALID,98,VALID,1.73006,
2002-02-01, 02:11:00,VALID,918.569,VALID,0,VALID,77.1368,VALID,-0.0679233,VALID,21.2646,VALID,40,VALID,3.34231,
2002-02-01, 02:12:00,VALID,918.496,VALID,0,VALID,77.2296,VALID,-0.101885,VALID,21.2679,VALID,120,VALID,1.8627,
2002-02-01, 02:13:00,VALID,918.501,VALID,0,VALID,77.6162,VALID,-0.101885,VALID,21.2291,VALID,101,VALID,2.64021,
2002-02-01, 02:14:01,VALID,918.494,VALID,0,VALID,78.0905,VALID,-0.0849042,VALID,21.1747,VALID,83,VALID,1.56931,
2002-02-01, 02:15:00,VALID,918.48,VALID,0,VALID,78.4949,VALID,-0.101885,VALID,21.0901,VALID,137,VALID,1.71464,
2002-02-01, 02:16:01,VALID,918.489,VALID,0,VALID,78.8509,VALID,-0.101885,VALID,21.0153,VALID,94,VALID,1.62402,
2002-02-01, 02:17:00,VALID,918.512,VALID,0,VALID,79.0531,VALID,-0.101885,VALID,20.9678,VALID,78,VALID,2.21793,
2002-02-01, 02:18:01,VALID,918.535,VALID,0,VALID,79.3125,VALID,-0.101885,VALID,20.932,VALID,94,VALID,1.60033,
2002-02-01, 02:19:00,VALID,918.53,VALID,0,VALID,79.5986,VALID,-0.101885,VALID,20.8798,VALID,131,VALID,1.27344,
2002-02-01, 02:20:00,VALID,918.508,VALID,0,VALID,79.6838,VALID,-0.101885,VALID,20.8545,VALID,121,VALID,1.58438,
2002-02-01, 02:21:00,VALID,918.514,VALID,0,VALID,79.3952,VALID,-0.101885,VALID,20.8515,VALID,97,VALID,2.40563,
2002-02-01, 02:22:01,VALID,918.489,VALID,0,VALID,79.6864,VALID,-0.101885,VALID,20.8838,VALID,76,VALID,2.3728,
2002-02-01, 02:23:00,VALID,918.504,VALID,0,VALID,79.7093,VALID,-0.0339617,VALID,20.8771,VALID,120,VALID,1.63425,
2002-02-01, 02:24:01,VALID,918.495,VALID,0,VALID,79.6673,VALID,0,VALID,20.8723,VALID,129,VALID,1.45527,
2002-02-01, 02:25:00,VALID,918.451,VALID,0,VALID,79.9292,VALID,0,VALID,20.8825,VALID,104,VALID,1.40173,
2002-02-01, 02:26:01,VALID,918.421,VALID,0,VALID,80.1352,VALID,0.0169808,VALID,20.8591,VALID,100,VALID,1.25637,
2002-02-01, 02:27:00,VALID,918.397,VALID,0,VALID,80.4239,VALID,0,VALID,20.8198,VALID,131,VALID,0.984786,
2002-02-01, 02:28:00,VALID,918.378,VALID,0,VALID,80.6833,VALID,0.0169808,VALID,20.7883,VALID,119,VALID,1.45566,
2002-02-01, 02:29:00,VALID,918.389,VALID,0,VALID,80.3463,VALID,-0.0169808,VALID,20.7463,VALID,110,VALID,1.88919,
2002-02-01, 02:30:01,VALID,918.379,VALID,0,VALID,80.6223,VALID,0,VALID,20.7761,VALID,93,VALID,1.52204,
2002-02-01, 02:31:00,VALID,918.358,VALID,0,VALID,80.771,VALID,0,VALID,20.7495,VALID,95,VALID,1.71423,
2002-02-01, 02:32:01,VALID,918.343,VALID,0,VALID,80.785,VALID,0,VALID,20.7592,VALID,123,VALID,1.34746,
2002-02-01, 02:33:00,VALID,918.324,VALID,0,VALID,80.8067,VALID,0.0169808,VALID,20.7562,VALID,156,VALID,1.00966,
2002-02-01, 02:34:01,VALID,918.294,VALID,0,VALID,81.2034,VALID,0,VALID,20.74,VALID,138,VALID,0.898232,
2002-02-01, 02:35:00,VALID,918.313,VALID,0,VALID,81.5633,VALID,0.0509425,VALID,20.6725,VALID,150,VALID,1.53598,
2002-02-01, 02:36:00,VALID,918.317,VALID,0,VALID,81.8951,VALID,0.0169808,VALID,20.6175,VALID,121,VALID,1.76055,
2002-02-01, 02:37:00,VALID,918.339,VALID,0,VALID,81.2098,VALID,0,VALID,20.6143,VALID,124,VALID,2.28084,
2002-02-01, 02:38:01,VALID,918.295,VALID,0,VALID,81.0584,VALID,-0.0679233,VALID,20.6732,VALID,145,VALID,2.85096,
2002-02-01, 02:39:00,VALID,918.282,VALID,0,VALID,81.0622,VALID,-0.101885,VALID,20.7158,VALID,113,VALID,2.7722,
2002-02-01, 02:40:01,VALID,918.286,VALID,0,VALID,81.1144,VALID,-0.101885,VALID,20.7257,VALID,148,VALID,1.80117,
2002-02-01, 02:41:00,VALID,918.277,VALID,0,VALID,81.1487,VALID,-0.0849042,VALID,20.7193,VALID,133,VALID,1.90502,
2002-02-01, 02:42:01,VALID,918.263,VALID,0,VALID,80.8995,VALID,-0.0509425,VALID,20.6991,VALID,151,VALID,2.17825,
2002-02-01, 02:43:00,VALID,918.262,VALID,0,VALID,80.8143,VALID,-0.0679233,VALID,20.7386,VALID,134,VALID,1.80983,
2002-02-01, 02:44:00,VALID,918.245,VALID,0,VALID,80.93,VALID,-0.0509425,VALID,20.761,VALID,161,VALID,2.06094,
2002-02-01, 02:45:00,VALID,918.201,VALID,0,VALID,80.9491,VALID,-0.0679233,VALID,20.7642,VALID,138,VALID,1.87089,
2002-02-01, 02:46:01,VALID,918.187,VALID,0,VALID,81.4285,VALID,-0.0679233,VALID,20.7513,VALID,99,VALID,1.75361,
2002-02-01, 02:47:00,VALID,918.203,VALID,0,VALID,81.7858,VALID,-0.0509425,VALID,20.6703,VALID,134,VALID,1.57504,
2002-02-01, 02:48:01,VALID,918.196,VALID,0,VALID,82.1991,VALID,-0.0849042,VALID,20.622,VALID,130,VALID,2.28262,
2002-02-01, 02:49:00,VALID,918.213,VALID,0,VALID,82.4674,VALID,-0.0509425,VALID,20.5607,VALID,113,VALID,2.19531,
2002-02-01, 02:50:01,VALID,918.229,VALID,0,VALID,82.8298,VALID,-0.0339617,VALID,20.5186,VALID,130,VALID,1.77632,
2002-02-01, 02:51:00,VALID,918.242,VALID,0,VALID,82.9519,VALID,-0.0849042,VALID,20.4806,VALID,140,VALID,1.52652,
2002-02-01, 02:52:00,VALID,918.196,VALID,0,VALID,83.1032,VALID,-0.0849042,VALID,20.454,VALID,155,VALID,1.58379,
2002-02-01, 02:53:00,VALID,918.187,VALID,0,VALID,83.2647,VALID,0,VALID,20.4277,VALID,135,VALID,2.27549,
2002-02-01, 02:54:01,VALID,918.211,VALID,0,VALID,83.2469,VALID,0.0169808,VALID,20.4172,VALID,140,VALID,2.10637,
2002-02-01, 02:55:00,VALID,918.197,VALID,0,VALID,83.5075,VALID,0.0509425,VALID,20.4237,VALID,145,VALID,1.73047,
2002-02-01, 02:56:01,VALID,918.222,VALID,0,VALID,83.8305,VALID,0,VALID,20.3784,VALID,157,VALID,2.13965,
2002-02-01, 02:57:00,VALID,918.218,VALID,0,VALID,84.1522,VALID,0.0169808,VALID,20.3367,VALID,152,VALID,1.60567,
2002-02-01, 02:58:01,VALID,918.237,VALID,0,VALID,83.5419,VALID,0.0169808,VALID,20.3141,VALID,138,VALID,2.16674,
2002-02-01, 02:59:01,VALID,918.232,VALID,0,VALID,83.4401,VALID,0.0169808,VALID,20.3491,VALID,140,VALID,2.46711,
2002-02-01, 03:00:01,VALID,918.225,VALID,0,VALID,83.6856,VALID,-0.0169808,VALID,20.3687,VALID,151,VALID,1.59063,
2002-02-01, 03:01:00,VALID,918.217,VALID,0,VALID,83.8789,VALID,0,VALID,20.366,VALID,133,VALID,1.23129,
2002-02-01, 03:02:01,VALID,918.204,VALID,0,VALID,84.1217,VALID,-0.0169808,VALID,20.324,VALID,125,VALID,0.918269,
2002-02-01, 03:03:01,VALID,918.189,VALID,0,VALID,84.4371,VALID,0,VALID,20.2882,VALID,148,VALID,1.4928,
2002-02-01, 03:04:01,VALID,918.164,VALID,0,VALID,84.7359,VALID,0,VALID,20.2236,VALID,154,VALID,1.99805,
2002-02-01, 03:05:00,VALID,918.144,VALID,0,VALID,84.7906,VALID,0.0169808,VALID,20.1784,VALID,156,VALID,1.92146,
2002-02-01, 03:06:01,VALID,918.134,VALID,0,VALID,84.9495,VALID,0.0169808,VALID,20.1687,VALID,161,VALID,1.83162,
2002-02-01, 03:07:00,VALID,918.106,VALID,0,VALID,84.9686,VALID,-0.0169808,VALID,20.1299,VALID,144,VALID,1.51727,
2002-02-01, 03:08:01,VALID,918.09,VALID,0,VALID,84.989,VALID,-0.0169808,VALID,20.1301,VALID,150,VALID,1.86133,
2002-02-01, 03:09:00,VALID,918.083,VALID,0,VALID,85.0843,VALID,-0.0169808,VALID,20.1336,VALID,141,VALID,1.99363,
2002-02-01, 03:10:01,VALID,918.064,VALID,0,VALID,84.9864,VALID,0,VALID,20.1212,VALID,142,VALID,1.99539,
2002-02-01, 03:11:01,VALID,918.044,VALID,0,VALID,84.9101,VALID,0,VALID,20.1078,VALID,139,VALID,1.73067,
2002-02-01, 03:12:01,VALID,918.03,VALID,0,VALID,85.2077,VALID,-0.0169808,VALID,20.1021,VALID,138,VALID,1.75449,
2002-02-01, 03:13:01,VALID,918.037,VALID,0,VALID,85.3628,VALID,0.0169808,VALID,20.0596,VALID,122,VALID,1.48355,
2002-02-01, 03:14:01,VALID,918.019,VALID,0,VALID,85.6794,VALID,-0.0169808,VALID,20.0305,VALID,152,VALID,1.47142,
2002-02-01, 03:15:01,VALID,918.008,VALID,0,VALID,85.9147,VALID,-0.0509425,VALID,19.9726,VALID,127,VALID,1.36657,
2002-02-01, 03:16:01,VALID,917.996,VALID,0,VALID,84.6939,VALID,-0.0339617,VALID,19.9761,VALID,108,VALID,1.95977,
2002-02-01, 03:17:01,VALID,917.987,VALID,0,VALID,84.8809,VALID,-0.0169808,VALID,20.0534,VALID,151,VALID,2.15419,
2002-02-01, 03:18:01,VALID,918.023,VALID,0,VALID,85.1212,VALID,-0.0169808,VALID,20.0397,VALID,152,VALID,1.64724,
2002-02-01, 03:19:01,VALID,918.025,VALID,0,VALID,85.1733,VALID,0.0169808,VALID,20.0367,VALID,146,VALID,2.35732,
2002-02-01, 03:20:01,VALID,918.044,VALID,0,VALID,84.6545,VALID,-0.0169808,VALID,20.066,VALID,126,VALID,2.17578,
2002-02-01, 03:21:01,VALID,918.036,VALID,0,VALID,84.2527,VALID,-0.0169808,VALID,20.1438,VALID,152,VALID,1.78557,
2002-02-01, 03:22:01,VALID,918.02,VALID,0,VALID,84.3099,VALID,-0.0679233,VALID,20.1958,VALID,142,VALID,1.06332,
2002-02-01, 03:23:01,VALID,918.015,VALID,0,VALID,84.3964,VALID,-0.0339617,VALID,20.1729,VALID,135,VALID,1.45415,
2002-02-01, 03:24:01,VALID,918.011,VALID,0,VALID,84.3201,VALID,-0.0169808,VALID,20.1573,VALID,137,VALID,1.98809,
2002-02-01, 03:25:01,VALID,918,VALID,0,VALID,84.0569,VALID,-0.0509425,VALID,20.1538,VALID,118,VALID,2.03248,
2002-02-01, 03:26:01,VALID,917.996,VALID,0,VALID,83.889,VALID,-0.0169808,VALID,20.2025,VALID,138,VALID,1.46154,
2002-02-01, 03:27:01,VALID,918.004,VALID,0,VALID,84.2158,VALID,-0.0509425,VALID,20.2052,VALID,118,VALID,1.43586,
2002-02-01, 03:28:01,VALID,918.006,VALID,0,VALID,84.0734,VALID,-0.0339617,VALID,20.1898,VALID,141,VALID,1.9209,
2002-02-01, 03:29:01,VALID,918.014,VALID,0,VALID,83.9412,VALID,-0.0509425,VALID,20.1829,VALID,127,VALID,1.80633,
2002-02-01, 03:30:01,VALID,917.985,VALID,0,VALID,83.9462,VALID,0,VALID,20.2092,VALID,144,VALID,2.0257,
2002-02-01, 03:31:01,VALID,917.97,VALID,0,VALID,84.3582,VALID,-0.0169808,VALID,20.196,VALID,139,VALID,1.63281,
2002-02-01, 03:32:01,VALID,917.978,VALID,0,VALID,84.3735,VALID,-0.0169808,VALID,20.154,VALID,140,VALID,1.79336,